Location: Grust
(42.8833°N, 0.0333°W)
Time: 20:14:14
(UTC+00:00)

ATLAS 5 CENTAUR R/B - Pass Details

Date: 25 October 2020
Orbit: 531 x 1127 km, 63.4° (Epoch: 22 November)

Event Time Altitude Azimuth Distance (km) Brightness Sun altitude
Rises 17:38:38 0° 272° (W) 2,758 6.9 -7.4°
Reaches altitude 10° 17:41:46 10° 300° (WNW) 1,942 4.9 -8.0°
Maximum altitude 17:44:04 14° 332° (NNW) 1,764 4.1 -8.4°
Drops below altitude 10° 17:46:31 10° 3° (N) 2,095 4.2 -8.9°
Sets 17:50:10 0° 29° (NNE) 3,152 4.8 -9.5°
